Location: Cambridge (historical)
(38.6883°N, 119.0140°W)
Time: 01:42:19
(UTC+00:00)

ISS - Visible Passes

Search period start: 22 June 2021 00:00
Search period end: 02 July 2021 00:00
Orbit: 417 x 422 km, 51.6° (Epoch: 21 June)

Date Brightness Start Highest point End Pass type
(mag) Time Alt. Az. Time Alt. Az. Time Alt. Az.
25 Jun -2.1 11:29:21 11° S 11:32:03 25° SE 11:34:53 10° ENE visible
26 Jun -1.5 10:43:50 14° SSE 10:44:45 15° SE 10:46:42 10° E visible
27 Jun -3.8 11:31:13 17° SW 11:33:45 85° SE 11:37:07 10° NE visible
28 Jun -3.2 10:45:35 38° S 10:46:20 46° SE 10:49:35 10° ENE visible
29 Jun -1.9 09:59:53 22° ESE 09:59:53 22° ESE 10:01:49 10° ENE visible
29 Jun -2.5 11:32:50 12° W 11:35:41 33° NNW 11:38:47 10° NE visible
30 Jun -3.3 10:47:04 36° W 10:48:08 54° NW 10:51:28 10° NE visible
01 Jul -3.2 10:01:16 57° ENE 10:01:16 57° ENE 10:04:01 10° NE visible
01 Jul -1.3 11:35:31 10° WNW 11:37:50 17° NNW 11:40:10 10° NNE visible
